Wind_Speed
65 67 67 67 67 68 69 69 69 68 65 63 61 59 57 57 56 54 55 54 47 38 37 40 45 47 46 49 48 44 37 44 62 40 44 54 109 94 84 77 76 75 83
65 66 67 67 68 67 67 68 67 65 62 60 59 59 57 55 54 54 53 48 40 37 39 41 42 43 38 41 41 37 42 36 45 64 45 44 47 100 70 74 64 75 72
66 66 67 67 65 67 68 66 63 62 61 61 59 59 55 54 54 54 50 45 42 40 43 41 42 40 34 35 35 33 36 34 35 45 57 43 38 54 93 54 60 65 71
67 67 66 68 69 67 65 65 65 64 63 62 60 57 55 54 53 52 49 47 45 45 44 42 40 37 36 33 30 31 26 27 25 26 51 53 50 43 78 59 56 63 70
66 66 67 67 67 68 68 68 68 66 63 62 59 58 56 55 54 52 49 49 48 46 44 43 37 35 38 32 31 28 28 26 17 16 32 33 28 40 54 83 56 58 56
65 67 69 70 71 72 71 70 69 67 65 63 61 59 57 56 54 50 47 43 46 43 44 42 38 34 36 33 29 27 27 27 27 23 23 22 29 35 41 68 64 47 50
68 70 73 75 76 74 73 72 71 69 68 66 63 61 57 56 55 49 43 42 41 42 44 44 41 37 35 32 28 25 26 26 25 16 20 32 29 35 33 69 78 47 50
72 73 74 76 77 78 77 77 75 73 70 67 65 62 58 56 55 52 47 44 44 43 44 43 42 40 34 32 26 24 26 26 24 23 16 24 34 36 34 39 50 49 48
74 75 77 79 79 80 78 76 73 71 69 67 64 61 59 57 54 53 50 52 50 49 48 45 41 40 36 32 27 25 26 24 22 21 23 18 25 39 43 37 39 39 46
78 79 79 80 80 79 77 72 68 63 59 57 56 58 58 57 53 51 50 51 51 51 50 48 44 41 40 35 29 28 30 27 24 21 21 21 25 32 42 42 48 40 40
78 80 82 83 83 82 78 71 67 64 52 51 53 54 54 54 51 49 49 48 48 47 50 49 48 43 41 38 34 31 30 28 26 23 22 23 29 29 35 42 40 40 38
82 82 83 82 80 75 74 70 68 58 50 47 51 46 48 50 50 49 48 48 45 45 46 47 45 45 42 40 39 35 34 32 29 26 25 22 28 28 34 42 42 42 41
80 80 80 78 73 69 70 68 65 52 45 48 55 46 51 51 45 45 48 47 45 43 44 45 43 41 41 42 42 40 38 36 33 30 28 26 26 33 31 37 41 44 48
77 77 74 69 66 66 66 65 57 43 44 49 48 47 49 44 41 44 45 47 48 45 43 42 42 42 41 40 42 43 42 39 38 36 32 30 27 30 36 34 38 44 50
74 69 65 64 62 60 59 55 45 43 43 44 44 47 49 42 43 44 42 47 45 50 46 43 42 42 40 42 42 41 42 43 40 38 38 34 32 31 34 42 35 45 46
69 62 59 59 59 53 48 42 39 52 45 42 44 45 45 45 42 43 42 50 38 37 48 47 44 42 41 40 39 40 41 41 43 42 42 39 36 32 35 39 43 41 48
61 60 61 59 52 45 39 37 36 41 54 51 46 47 42 43 44 49 47 41 44 44 39 45 47 44 42 41 40 39 39 39 40 40 39 39 38 37 33 39 44 46 44
61 63 59 52 47 42 38 34 37 41 48 48 49 47 47 47 49 46 46 45 38 45 48 44 45 46 46 44 41 39 38 38 38 37 38 38 37 39 33 36 45 50 47
61 57 55 52 49 45 40 37 34 45 51 51 46 47 48 47 49 52 52 49 44 41 43 44 44 45 45 45 44 41 38 37 37 36 37 36 36 36 32 34 42 53 54
59 59 57 54 50 46 42 39 37 37 41 51 58 56 52 46 44 44 49 50 46 45 40 39 42 40 42 46 45 43 41 38 37 37 36 37 36 35 33 31 35 50 59
60 60 59 57 52 47 44 41 38 38 40 40 44 51 62 62 56 51 51 50 49 50 47 46 40 42 41 41 45 46 44 41 39 38 38 40 35 33 31 31 31 42 58
62 62 62 58 52 46 42 41 41 40 39 41 43 45 53 57 66 63 56 56 54 51 52 47 43 44 45 45 43 43 45 42 39 38 37 38 34 30 27 29 35 39 51
61 62 62 58 52 46 40 38 38 40 42 43 43 46 49 50 56 62 70 64 62 59 55 56 49 45 47 44 45 45 44 43 40 40 35 35 33 28 22 24 29 35 44
62 63 64 59 51 46 42 36 34 35 38 41 45 47 48 51 53 52 55 60 71 73 68 63 59 50 47 45 44 45 45 44 42 39 37 34 31 27 21 23 24 26 32
61 62 64 60 52 47 41 36 32 31 32 35 38 42 45 48 51 53 51 51 52 60 72 74 65 63 57 54 50 44 46 44 43 40 37 33 31 29 24 23 26 25 24
61 62 63 61 54 48 43 36 30 27 27 29 31 33 36 38 42 47 51 50 48 49 53 63 78 73 63 56 57 47 44 45 46 42 37 33 29 31 26 28 27 26 28
Wind_Direction
289 289 291 293 295 295 296 296 296 297 298 297 297 298 300 301 301 300 296 295 294 291 297 297 296 305 312 316 312 290 299 271 248 238 241 241 229 223 220 221 216 226 234
287 289 291 293 294 296 295 295 297 296 296 297 299 299 300 302 299 294 292 287 285 285 295 290 299 305 312 323 317 296 294 284 260 245 244 247 248 226 218 217 210 219 227
288 291 294 296 295 294 295 296 296 296 297 298 299 300 299 297 292 288 282 277 280 284 288 289 294 299 309 309 326 311 291 294 286 267 235 234 225 238 228 224 217 225 225
291 297 297 295 295 297 297 297 297 298 298 297 297 296 294 291 287 282 275 274 277 278 287 283 291 293 301 306 313 324 323 300 278 264 244 241 249 239 235 218 210 210 212
297 295 296 298 298 297 296 296 296 295 295 295 294 294 291 287 283 277 274 274 277 277 279 277 282 286 297 304 309 311 320 325 286 259 244 239 247 250 243 234 215 209 218
297 297 297 296 295 294 294 294 294 294 294 293 292 289 286 282 280 276 271 275 275 274 273 275 276 280 289 297 307 311 311 317 333 228 247 247 242 249 233 226 226 216 218
296 296 296 296 297 297 296 296 296 294 292 291 288 284 280 278 276 274 270 269 267 267 270 271 272 273 279 290 299 311 317 310 314 296 227 236 251 249 233 224 234 230 210
300 299 298 298 298 298 297 296 294 292 289 287 284 280 277 273 271 268 262 263 263 265 268 269 269 271 271 279 289 303 314 317 309 319 259 213 221 226 231 224 244 219 224
301 301 300 299 298 297 296 294 291 289 288 285 280 275 272 269 267 266 263 260 261 262 264 264 266 268 268 269 276 290 301 314 319 302 308 234 202 222 232 215 217 223 222
302 301 299 298 297 296 295 294 291 292 289 284 276 271 269 266 265 264 263 259 259 260 262 262 262 264 264 266 269 278 290 301 313 314 287 265 212 204 217 218 218 215 212
303 303 302 301 301 300 298 297 294 293 284 284 276 272 269 267 265 263 262 260 258 258 258 256 257 260 260 261 259 265 275 287 297 305 305 288 234 211 203 211 212 212 219
305 304 301 299 297 294 291 291 288 284 285 275 279 265 272 272 265 261 258 258 256 256 258 257 256 255 254 254 254 257 264 273 281 291 301 285 273 245 200 199 212 222 225
304 301 298 296 293 290 289 287 285 266 269 273 265 268 267 271 261 260 258 256 255 253 256 257 251 253 254 253 252 252 255 263 270 281 288 291 274 266 237 194 196 208 221
307 304 302 299 296 294 289 285 278 261 258 256 261 258 260 258 260 257 258 260 256 253 251 252 253 252 251 254 255 254 253 256 265 269 278 279 284 270 259 243 195 198 210
311 308 304 302 301 298 292 286 266 240 249 248 258 255 255 252 257 263 267 258 260 253 250 250 251 249 251 253 254 255 255 255 258 263 270 275 272 273 260 253 234 192 200
313 310 308 308 307 302 294 284 265 240 251 252 251 254 250 249 251 254 258 253 256 261 254 250 249 251 252 253 255 256 257 257 257 258 262 269 267 274 255 244 246 225 197
317 315 314 312 309 302 295 284 262 248 258 253 246 247 249 250 255 251 254 258 258 255 254 255 251 249 250 253 254 255 258 260 261 261 261 265 268 275 262 241 233 238 220
320 319 316 313 309 305 299 289 260 243 237 239 248 249 248 249 252 251 249 252 254 256 253 253 251 251 250 249 251 252 253 255 257 259 263 265 267 275 268 242 229 229 231
324 322 318 314 309 304 298 289 276 247 241 241 245 245 246 247 250 250 252 247 248 251 250 249 248 248 248 249 249 248 247 249 253 259 262 265 273 274 256 236 229 222 222
330 327 322 318 313 306 298 288 279 271 257 251 249 247 246 243 241 244 241 241 242 239 246 248 247 245 246 245 244 243 244 243 249 256 261 266 272 275 245 237 235 226 214
334 332 327 321 316 308 299 291 281 271 264 260 254 247 245 243 237 235 241 241 241 239 241 246 251 249 243 242 240 239 239 242 248 254 260 265 269 269 242 246 248 230 220
335 335 332 326 320 313 303 291 280 272 266 259 255 251 249 250 245 239 235 237 243 239 238 241 244 247 246 239 236 236 236 238 244 251 258 262 265 260 243 246 246 230 219
336 338 338 332 327 320 311 298 285 275 266 261 257 253 251 251 248 247 243 235 237 240 235 233 230 237 241 236 235 235 235 235 238 247 252 256 258 255 241 240 234 224 218
339 341 342 339 333 327 320 309 295 282 271 264 259 256 253 251 250 250 247 243 240 239 239 235 228 231 233 235 233 232 231 231 233 240 247 251 259 255 232 227 221 213 214
342 344 345 343 338 333 326 318 307 293 280 271 266 263 258 254 250 248 248 246 241 237 236 235 232 226 225 236 236 230 228 227 228 232 239 247 256 256 224 215 213 208 195
346 347 348 347 344 340 335 328 316 303 290 281 274 268 262 257 251 245 244 245 245 241 236 234 230 228 225 232 232 229 225 225 224 225 231 243 251 257 225 215 208 203 203
Height
5663 5658 5653 5649 5644 5639 5634 5629 5623 5617 5612 5606 5601 5594 5588 5583 5578 5573 5569 5564 5562 5559 5554 5552 5547 5540 5532 5521 5510 5502 5496 5489 5485 5499 5498 5506 5517 5536 5560 5570 5584 5602 5619
5648 5643 5639 5634 5628 5621 5615 5609 5604 5599 5594 5588 5582 5577 5572 5566 5562 5559 5555 5551 5549 5546 5545 5542 5537 5530 5522 5512 5502 5496 5488 5480 5476 5485 5491 5492 5498 5515 5536 5546 5561 5581 5593
5634 5629 5623 5616 5610 5603 5598 5591 5586 5581 5574 5569 5564 5558 5554 5552 5550 5545 5542 5540 5536 5535 5536 5532 5528 5521 5514 5507 5498 5489 5483 5477 5471 5471 5480 5484 5491 5496 5515 5527 5541 5558 5579
5616 5610 5605 5598 5592 5585 5579 5573 5567 5561 5556 5551 5547 5543 5540 5538 5535 5531 5529 5526 5524 5524 5523 5521 5518 5512 5506 5500 5494 5485 5477 5471 5464 5461 5467 5474 5480 5490 5496 5511 5525 5542 5556
5598 5592 5584 5578 5572 5566 5559 5553 5547 5542 5538 5534 5530 5527 5524 5522 5519 5516 5514 5512 5510 5511 5510 5510 5507 5503 5498 5493 5487 5479 5473 5466 5461 5460 5466 5471 5475 5478 5488 5499 5513 5527 5542
5579 5571 5564 5558 5552 5546 5540 5534 5529 5523 5518 5515 5512 5510 5508 5505 5502 5500 5499 5498 5497 5497 5497 5498 5497 5495 5490 5485 5480 5474 5469 5464 5457 5457 5460 5464 5468 5474 5478 5493 5500 5511 5525
5561 5553 5544 5534 5528 5522 5517 5511 5506 5502 5498 5495 5494 5492 5490 5488 5486 5485 5484 5484 5484 5484 5485 5485 5485 5485 5483 5478 5473 5469 5464 5460 5457 5452 5455 5456 5462 5467 5474 5485 5487 5501 5512
5540 5532 5523 5513 5506 5499 5494 5488 5483 5479 5476 5474 5472 5471 5470 5469 5469 5468 5469 5470 5471 5471 5472 5473 5472 5473 5473 5471 5467 5464 5460 5456 5452 5449 5447 5450 5455 5462 5467 5477 5482 5494 5504
5520 5512 5502 5492 5485 5477 5473 5466 5458 5454 5453 5451 5449 5449 5449 5449 5450 5451 5452 5455 5456 5458 5459 5460 5460 5461 5462 5462 5461 5459 5455 5452 5449 5447 5443 5442 5446 5452 5456 5464 5478 5487 5494
5498 5490 5481 5471 5462 5454 5446 5442 5436 5430 5429 5427 5426 5426 5427 5429 5430 5432 5435 5438 5440 5442 5445 5447 5449 5449 5450 5452 5452 5451 5449 5447 5445 5441 5439 5439 5441 5446 5453 5460 5469 5477 5483
5477 5466 5456 5446 5435 5427 5420 5416 5412 5408 5407 5407 5406 5406 5408 5409 5411 5415 5418 5421 5424 5426 5429 5432 5436 5438 5439 5440 5442 5442 5443 5441 5440 5438 5436 5436 5437 5441 5445 5450 5457 5465 5473
5451 5441 5430 5422 5413 5405 5398 5396 5393 5389 5390 5390 5388 5390 5391 5392 5395 5398 5401 5405 5409 5412 5414 5417 5421 5424 5427 5429 5431 5432 5434 5434 5435 5433 5431 5431 5431 5433 5436 5439 5447 5456 5464
5430 5418 5407 5398 5390 5383 5375 5372 5369 5371 5373 5375 5372 5375 5376 5376 5380 5383 5386 5389 5392 5397 5400 5403 5406 5410 5413 5416 5419 5422 5423 5425 5426 5427 5425 5424 5425 5427 5430 5433 5441 5448 5457
5406 5393 5381 5372 5365 5358 5352 5348 5346 5351 5355 5357 5356 5358 5360 5361 5364 5368 5371 5374 5377 5381 5385 5389 5392 5395 5400 5403 5407 5410 5413 5416 5417 5419 5420 5420 5419 5422 5425 5426 5432 5438 5447
5382 5370 5359 5349 5341 5335 5327 5323 5325 5332 5338 5339 5340 5342 5345 5346 5349 5353 5356 5359 5361 5365 5369 5374 5378 5382 5386 5390 5394 5397 5401 5404 5407 5409 5410 5412 5413 5414 5416 5418 5422 5429 5437
5361 5350 5340 5331 5321 5313 5307 5306 5307 5313 5317 5319 5321 5324 5326 5330 5334 5338 5341 5343 5346 5350 5354 5359 5363 5368 5372 5376 5381 5384 5388 5391 5395 5400 5402 5402 5404 5404 5405 5410 5414 5418 5428
5341 5331 5322 5312 5303 5297 5293 5290 5291 5295 5297 5300 5302 5306 5309 5314 5318 5322 5327 5329 5332 5336 5340 5344 5349 5353 5358 5363 5367 5372 5375 5379 5382 5386 5390 5393 5394 5396 5396 5400 5405 5411 5418
5328 5315 5304 5295 5289 5284 5279 5276 5276 5278 5281 5284 5288 5291 5294 5296 5301 5306 5311 5315 5319 5322 5327 5331 5335 5340 5344 5349 5354 5359 5363 5367 5370 5373 5376 5379 5381 5381 5383 5385 5392 5401 5408
5315 5302 5291 5283 5275 5269 5265 5261 5260 5263 5264 5267 5270 5273 5273 5279 5284 5289 5295 5301 5304 5308 5313 5317 5321 5325 5330 5336 5341 5346 5351 5354 5358 5361 5364 5366 5368 5369 5369 5372 5378 5386 5396
5302 5289 5278 5268 5260 5253 5248 5245 5243 5243 5245 5247 5250 5255 5256 5261 5267 5271 5277 5283 5288 5293 5298 5303 5306 5311 5316 5322 5327 5333 5338 5343 5347 5350 5353 5355 5357 5357 5359 5362 5366 5373 5383
5290 5278 5264 5253 5243 5236 5230 5226 5225 5225 5225 5226 5229 5231 5235 5240 5246 5253 5259 5264 5270 5277 5282 5289 5293 5298 5303 5308 5314 5320 5326 5331 5336 5339 5342 5345 5347 5346 5347 5350 5354 5358 5367
5279 5265 5251 5238 5227 5218 5212 5208 5205 5205 5206 5207 5210 5211 5214 5217 5224 5232 5238 5246 5252 5259 5266 5272 5278 5284 5289 5295 5301 5307 5313 5319 5324 5328 5332 5334 5336 5337 5338 5339 5341 5345 5352
5271 5257 5241 5226 5213 5203 5196 5190 5187 5185 5186 5188 5190 5192 5194 5197 5202 5207 5216 5224 5232 5239 5246 5255 5262 5269 5275 5280 5287 5293 5300 5307 5313 5317 5321 5324 5325 5326 5328 5329 5330 5333 5340
5261 5246 5230 5214 5201 5190 5182 5175 5170 5167 5167 5168 5169 5172 5175 5178 5181 5186 5192 5198 5207 5217 5226 5235 5244 5253 5260 5267 5273 5280 5287 5294 5301 5306 5311 5314 5316 5316 5319 5321 5324 5327 5331
5253 5238 5221 5205 5192 5180 5171 5163 5157 5153 5151 5151 5152 5153 5155 5158 5162 5167 5172 5177 5184 5192 5202 5212 5222 5233 5242 5252 5260 5266 5274 5281 5288 5294 5300 5304 5307 5308 5310 5315 5319 5323 5327
5246 5231 5215 5199 5184 5172 5161 5153 5147 5142 5139 5137 5137 5137 5138 5140 5144 5148 5153 5159 5165 5172 5180 5187 5199 5212 5223 5235 5244 5253 5261 5268 5276 5283 5290 5294 5298 5299 5302 5307 5313 5318 5324